,,,PA_Meas_PMT16A,,PR_Meas_QMR101_102,,RH_Meas_QMH101,,SR_Meas_QMS101,,TA_Meas_QMH101,,GenWind,,GenWind,
date,time,status,PA,status,PR,status,RH,status,SR,status,TA,status,DirAvg,status,SpdAvg,
2010-11-05, 00:00:04,VALID,1009.72,VALID,0,VALID,103.459,VALID,0,VALID,25.4267,VALID,96,VALID,1.19805,
2010-11-05, 00:01:04,VALID,1009.7,VALID,0,VALID,103.489,VALID,0,VALID,25.4287,VALID,101,VALID,1.07266,
2010-11-05, 00:02:04,VALID,1009.67,VALID,0,VALID,103.466,VALID,0,VALID,25.4287,VALID,93,VALID,0.741016,
2010-11-05, 00:03:04,VALID,1009.63,VALID,0,VALID,103.474,VALID,0,VALID,25.4482,VALID,106,VALID,1.10156,
2010-11-05, 00:04:04,VALID,1009.6,VALID,0,VALID,103.489,VALID,0,VALID,25.4287,VALID,97,VALID,0.944922,
2010-11-05, 00:05:05,VALID,1009.55,VALID,0,VALID,103.504,VALID,0,VALID,25.4287,VALID,98,VALID,0.755469,
2010-11-05, 00:06:05,VALID,1009.56,VALID,0,VALID,103.481,VALID,0,VALID,25.4287,VALID,93,VALID,0.923828,
2010-11-05, 00:07:05,VALID,1009.53,VALID,0,VALID,103.504,VALID,0.105969,VALID,25.4072,VALID,100,VALID,0.733203,
2010-11-05, 00:08:05,VALID,1009.55,VALID,0,VALID,103.512,VALID,0,VALID,25.4092,VALID,75,VALID,0.855078,
2010-11-05, 00:09:05,VALID,1009.57,VALID,0,VALID,103.512,VALID,0,VALID,25.4092,VALID,49,VALID,0.576563,
2010-11-05, 00:10:05,VALID,1009.57,VALID,0.5,VALID,103.52,VALID,0,VALID,25.3897,VALID,4,VALID,0.767969,
2010-11-05, 00:11:05,VALID,1009.6,VALID,0,VALID,103.512,VALID,0.105969,VALID,25.3683,VALID,26,VALID,0.220703,
2010-11-05, 00:12:05,VALID,1009.62,VALID,0,VALID,103.52,VALID,0,VALID,25.3488,VALID,65,VALID,0.567187,
2010-11-05, 00:13:05,VALID,1009.62,VALID,0,VALID,103.497,VALID,0,VALID,25.3507,VALID,64,VALID,0.344922,
2010-11-05, 00:14:05,VALID,1009.65,VALID,0,VALID,103.497,VALID,0,VALID,25.3488,VALID,32,VALID,0.540625,
2010-11-05, 00:15:05,VALID,1009.64,VALID,0,VALID,103.497,VALID,0,VALID,25.3312,VALID,60,VALID,0.819531,
2010-11-05, 00:16:05,VALID,1009.64,VALID,0,VALID,103.497,VALID,0,VALID,25.3098,VALID,61,VALID,0.402344,
2010-11-05, 00:17:05,VALID,1009.63,VALID,0,VALID,103.489,VALID,0,VALID,25.3507,VALID,61,VALID,0.00273437,
2010-11-05, 00:18:05,VALID,1009.61,VALID,0,VALID,103.481,VALID,0.105969,VALID,25.3098,VALID,72,VALID,0.998047,
2010-11-05, 00:19:05,VALID,1009.55,VALID,0,VALID,103.489,VALID,0.105969,VALID,25.3098,VALID,87,VALID,0.914063,
2010-11-05, 00:20:05,VALID,1009.5,VALID,0,VALID,103.489,VALID,0,VALID,25.3312,VALID,69,VALID,1.2543,
2010-11-05, 00:21:05,VALID,1009.48,VALID,0,VALID,103.466,VALID,0,VALID,25.3098,VALID,102,VALID,1.35352,
2010-11-05, 00:22:05,VALID,1009.44,VALID,0,VALID,103.443,VALID,0,VALID,25.3507,VALID,96,VALID,1.7293,
2010-11-05, 00:23:05,VALID,1009.42,VALID,0,VALID,103.466,VALID,0,VALID,25.3293,VALID,86,VALID,1.86055,
2010-11-05, 00:24:05,VALID,1009.39,VALID,0,VALID,103.459,VALID,0,VALID,25.3293,VALID,79,VALID,1.46406,
2010-11-05, 00:25:05,VALID,1009.38,VALID,0,VALID,103.436,VALID,0,VALID,25.3702,VALID,93,VALID,1.09375,
2010-11-05, 00:26:05,VALID,1009.3,VALID,0,VALID,103.474,VALID,0,VALID,25.3507,VALID,111,VALID,1.74375,
2010-11-05, 00:27:05,VALID,1009.27,VALID,0,VALID,103.504,VALID,0,VALID,25.3117,VALID,71,VALID,1.87031,
2010-11-05, 00:28:05,VALID,1009.23,VALID,0,VALID,103.504,VALID,0,VALID,25.3117,VALID,53,VALID,1.00391,
2010-11-05, 00:29:05,VALID,1009.2,VALID,0,VALID,103.512,VALID,0,VALID,25.3117,VALID,72,VALID,1.41328,
2010-11-05, 00:30:05,VALID,1009.12,VALID,0,VALID,103.504,VALID,0,VALID,25.3117,VALID,67,VALID,0.903906,
2010-11-05, 00:31:05,VALID,1009.11,VALID,0.5,VALID,103.504,VALID,0,VALID,25.2922,VALID,286,VALID,0.579687,
2010-11-05, 00:32:05,VALID,1009.01,VALID,0,VALID,103.542,VALID,0,VALID,25.2708,VALID,23,VALID,0.583984,
2010-11-05, 00:33:05,VALID,1008.98,VALID,0,VALID,103.527,VALID,0,VALID,25.2727,VALID,243,VALID,0.569141,
2010-11-05, 00:34:05,VALID,1008.96,VALID,0,VALID,103.52,VALID,0,VALID,25.2727,VALID,36,VALID,0.341406,
2010-11-05, 00:35:05,VALID,1008.94,VALID,0,VALID,103.55,VALID,0.105969,VALID,25.2318,VALID,79,VALID,1.16797,
2010-11-05, 00:36:05,VALID,1008.92,VALID,0,VALID,103.527,VALID,0.105969,VALID,25.2318,VALID,273,VALID,0.761328,
2010-11-05, 00:37:05,VALID,1008.91,VALID,0,VALID,103.565,VALID,0,VALID,25.2142,VALID,259,VALID,0.676562,
2010-11-05, 00:38:05,VALID,1008.87,VALID,0,VALID,103.542,VALID,0,VALID,25.1947,VALID,292,VALID,0.70625,
2010-11-05, 00:39:05,VALID,1008.9,VALID,0,VALID,103.542,VALID,0,VALID,25.1947,VALID,244,VALID,0.689062,
2010-11-05, 00:40:05,VALID,1008.91,VALID,0,VALID,103.527,VALID,0,VALID,25.1343,VALID,227,VALID,1.00391,
2010-11-05, 00:41:05,VALID,1008.91,VALID,0,VALID,103.497,VALID,0,VALID,25.1557,VALID,292,VALID,0.557031,
2010-11-05, 00:42:05,VALID,1008.93,VALID,0,VALID,103.466,VALID,0,VALID,25.1557,VALID,281,VALID,0.512891,
2010-11-05, 00:43:05,VALID,1008.94,VALID,0,VALID,103.413,VALID,0,VALID,25.1362,VALID,286,VALID,0.390234,
2010-11-05, 00:44:05,VALID,1008.94,VALID,0,VALID,103.337,VALID,0,VALID,25.1167,VALID,4,VALID,0.750391,
2010-11-05, 00:45:05,VALID,1008.96,VALID,0,VALID,103.138,VALID,0.105969,VALID,24.9979,VALID,67,VALID,0.185156,
2010-11-05, 00:46:05,VALID,1008.93,VALID,0,VALID,102.818,VALID,0,VALID,24.9394,VALID,108,VALID,0.859766,
2010-11-05, 00:47:05,VALID,1008.94,VALID,0,VALID,102.505,VALID,0,VALID,24.9004,VALID,68,VALID,1.53984,
2010-11-05, 00:48:05,VALID,1008.94,VALID,0,VALID,102.231,VALID,0.105969,VALID,24.9004,VALID,80,VALID,1.16562,
2010-11-05, 00:49:05,VALID,1008.93,VALID,0,VALID,102.216,VALID,0,VALID,24.9023,VALID,77,VALID,1.29219,
2010-11-05, 00:50:05,VALID,1008.94,VALID,0,VALID,102.391,VALID,0,VALID,24.9218,VALID,80,VALID,0.761719,
2010-11-05, 00:51:05,VALID,1008.93,VALID,0,VALID,102.536,VALID,0.105969,VALID,24.8809,VALID,85,VALID,1.13477,
2010-11-05, 00:52:05,VALID,1008.93,VALID,0,VALID,102.231,VALID,0.105969,VALID,24.842,VALID,81,VALID,1.22695,
2010-11-05, 00:53:05,VALID,1008.96,VALID,0,VALID,101.949,VALID,0,VALID,24.8244,VALID,85,VALID,1.20586,
2010-11-05, 00:54:05,VALID,1008.93,VALID,0,VALID,101.804,VALID,0,VALID,24.8244,VALID,71,VALID,0.909766,
2010-11-05, 00:55:05,VALID,1008.97,VALID,0,VALID,101.872,VALID,0,VALID,24.8049,VALID,87,VALID,0.882813,
2010-11-05, 00:56:05,VALID,1008.96,VALID,0,VALID,102.071,VALID,0,VALID,24.764,VALID,56,VALID,0.654688,
2010-11-05, 00:57:05,VALID,1008.94,VALID,0,VALID,102.216,VALID,0,VALID,24.7445,VALID,82,VALID,0.944531,
2010-11-05, 00:58:05,VALID,1008.93,VALID,0.5,VALID,102.155,VALID,0,VALID,24.7074,VALID,102,VALID,1.45742,
2010-11-05, 00:59:05,VALID,1008.93,VALID,0,VALID,102.208,VALID,0.105969,VALID,24.6879,VALID,87,VALID,1.09023,
2010-11-05, 01:00:05,VALID,1008.93,VALID,0,VALID,102.376,VALID,0,VALID,24.6879,VALID,66,VALID,1.04922,
2010-11-05, 01:01:05,VALID,1008.88,VALID,0,VALID,102.513,VALID,0,VALID,24.6879,VALID,78,VALID,0.971484,
2010-11-05, 01:02:05,VALID,1008.87,VALID,0,VALID,102.574,VALID,0,VALID,24.6081,VALID,74,VALID,1.18359,
2010-11-05, 01:03:05,VALID,1008.86,VALID,0,VALID,102.673,VALID,0.105969,VALID,24.5886,VALID,94,VALID,1.44336,
2010-11-05, 01:04:05,VALID,1008.83,VALID,0,VALID,102.833,VALID,0,VALID,24.5905,VALID,51,VALID,0.958203,
2010-11-05, 01:05:05,VALID,1008.81,VALID,0,VALID,102.871,VALID,0,VALID,24.5106,VALID,69,VALID,0.917578,
2010-11-05, 01:06:05,VALID,1008.8,VALID,0,VALID,102.917,VALID,0,VALID,24.4717,VALID,74,VALID,0.946094,
2010-11-05, 01:07:05,VALID,1008.77,VALID,0,VALID,102.925,VALID,0,VALID,24.4132,VALID,78,VALID,1.08398,
2010-11-05, 01:08:05,VALID,1008.76,VALID,0,VALID,102.925,VALID,0,VALID,24.3956,VALID,50,VALID,0.891016,
2010-11-05, 01:09:05,VALID,1008.76,VALID,0,VALID,102.948,VALID,0,VALID,24.3547,VALID,64,VALID,0.730078,
2010-11-05, 01:10:05,VALID,1008.73,VALID,0,VALID,102.971,VALID,0,VALID,24.3371,VALID,82,VALID,1.20273,
2010-11-05, 01:11:05,VALID,1008.73,VALID,0,VALID,103.039,VALID,0,VALID,24.3371,VALID,95,VALID,1.03437,
2010-11-05, 01:12:05,VALID,1008.72,VALID,0.5,VALID,103.093,VALID,0,VALID,24.3158,VALID,79,VALID,0.686328,
2010-11-05, 01:13:05,VALID,1008.75,VALID,0,VALID,103.199,VALID,0,VALID,24.3158,VALID,32,VALID,0.798437,
2010-11-05, 01:14:05,VALID,1008.74,VALID,0,VALID,103.253,VALID,0,VALID,24.3176,VALID,32,VALID,0.399609,
2010-11-05, 01:15:05,VALID,1008.73,VALID,0,VALID,103.306,VALID,0,VALID,24.2963,VALID,32,VALID,0.0234375,
2010-11-05, 01:16:05,VALID,1008.72,VALID,0,VALID,103.352,VALID,0,VALID,24.2378,VALID,91,VALID,1.09141,
2010-11-05, 01:17:05,VALID,1008.74,VALID,0,VALID,103.359,VALID,0,VALID,24.2183,VALID,76,VALID,0.731641,
2010-11-05, 01:18:05,VALID,1008.75,VALID,0,VALID,103.359,VALID,0,VALID,24.2396,VALID,85,VALID,0.735547,
2010-11-05, 01:19:05,VALID,1008.73,VALID,0,VALID,103.39,VALID,0,VALID,24.2202,VALID,100,VALID,0.844141,
2010-11-05, 01:20:05,VALID,1008.73,VALID,0,VALID,103.39,VALID,0,VALID,24.1988,VALID,100,VALID,0.975,
2010-11-05, 01:21:05,VALID,1008.7,VALID,0,VALID,103.398,VALID,0,VALID,24.2007,VALID,115,VALID,0.876172,
2010-11-05, 01:22:05,VALID,1008.69,VALID,0,VALID,103.436,VALID,0.105969,VALID,24.1793,VALID,100,VALID,0.910156,
2010-11-05, 01:23:05,VALID,1008.69,VALID,0,VALID,103.413,VALID,0,VALID,24.2202,VALID,100,VALID,0.523828,
2010-11-05, 01:24:05,VALID,1008.69,VALID,0,VALID,103.428,VALID,0,VALID,24.2183,VALID,117,VALID,0.747656,
2010-11-05, 01:25:05,VALID,1008.66,VALID,0,VALID,103.459,VALID,0,VALID,24.2591,VALID,130,VALID,0.412891,
2010-11-05, 01:26:05,VALID,1008.66,VALID,0,VALID,103.535,VALID,0,VALID,24.1988,VALID,130,VALID,0.846875,
2010-11-05, 01:27:05,VALID,1008.65,VALID,0.5,VALID,103.527,VALID,0,VALID,24.1599,VALID,114,VALID,1.09492,
2010-11-05, 01:28:05,VALID,1008.65,VALID,0,VALID,103.527,VALID,0,VALID,24.1404,VALID,108,VALID,1.0125,
2010-11-05, 01:29:05,VALID,1008.62,VALID,0,VALID,103.497,VALID,0,VALID,24.1422,VALID,117,VALID,0.924219,
2010-11-05, 01:30:05,VALID,1008.61,VALID,0,VALID,103.489,VALID,0,VALID,24.1227,VALID,87,VALID,0.519922,
2010-11-05, 01:31:05,VALID,1008.62,VALID,0,VALID,103.52,VALID,0,VALID,24.1014,VALID,102,VALID,0.567969,
2010-11-05, 01:32:05,VALID,1008.59,VALID,0,VALID,103.52,VALID,0,VALID,24.0819,VALID,77,VALID,1.20469,
2010-11-05, 01:33:05,VALID,1008.58,VALID,0,VALID,103.52,VALID,0,VALID,24.0643,VALID,97,VALID,0.958203,
2010-11-05, 01:34:05,VALID,1008.6,VALID,0,VALID,103.527,VALID,0,VALID,24.0235,VALID,114,VALID,0.880469,
2010-11-05, 01:35:05,VALID,1008.58,VALID,0.5,VALID,103.558,VALID,0,VALID,24.0253,VALID,123,VALID,0.880078,
2010-11-05, 01:36:05,VALID,1008.56,VALID,0,VALID,103.542,VALID,0,VALID,24.0235,VALID,135,VALID,1.22422,
2010-11-05, 01:37:05,VALID,1008.56,VALID,0,VALID,103.565,VALID,0,VALID,23.9845,VALID,111,VALID,1.00039,
2010-11-05, 01:38:05,VALID,1008.54,VALID,0,VALID,103.573,VALID,0,VALID,23.9668,VALID,115,VALID,0.74375,
2010-11-05, 01:39:05,VALID,1008.52,VALID,0,VALID,103.603,VALID,0,VALID,23.9473,VALID,137,VALID,0.760938,
2010-11-05, 01:40:05,VALID,1008.49,VALID,0.5,VALID,103.611,VALID,0,VALID,23.9278,VALID,141,VALID,1.28633,
2010-11-05, 01:41:05,VALID,1008.47,VALID,0,VALID,103.642,VALID,0,VALID,23.8481,VALID,145,VALID,1.17461,
2010-11-05, 01:42:05,VALID,1008.43,VALID,0,VALID,103.626,VALID,0,VALID,23.8481,VALID,133,VALID,0.944922,
2010-11-05, 01:43:05,VALID,1008.39,VALID,0,VALID,103.603,VALID,0,VALID,23.8499,VALID,134,VALID,1.05859,
2010-11-05, 01:44:05,VALID,1008.36,VALID,0,VALID,103.649,VALID,0,VALID,23.8304,VALID,130,VALID,0.809375,
2010-11-05, 01:45:05,VALID,1008.36,VALID,0,VALID,103.626,VALID,0,VALID,23.8499,VALID,147,VALID,0.651563,
2010-11-05, 01:46:05,VALID,1008.35,VALID,0.5,VALID,103.634,VALID,0,VALID,23.8091,VALID,125,VALID,1.01016,
2010-11-05, 01:47:05,VALID,1008.35,VALID,0,VALID,103.657,VALID,0,VALID,23.8091,VALID,139,VALID,0.782812,
2010-11-05, 01:48:05,VALID,1008.35,VALID,0,VALID,103.626,VALID,0,VALID,23.8091,VALID,154,VALID,0.870703,
2010-11-05, 01:49:05,VALID,1008.33,VALID,0,VALID,103.642,VALID,0,VALID,23.8109,VALID,146,VALID,1.36953,
2010-11-05, 01:50:05,VALID,1008.34,VALID,0,VALID,103.649,VALID,0,VALID,23.8109,VALID,134,VALID,1.16602,
2010-11-05, 01:51:05,VALID,1008.35,VALID,0,VALID,103.634,VALID,0,VALID,23.8109,VALID,142,VALID,1.6168,
2010-11-05, 01:52:05,VALID,1008.38,VALID,0,VALID,103.626,VALID,0,VALID,23.7896,VALID,138,VALID,1.35781,
2010-11-05, 01:53:05,VALID,1008.32,VALID,0.5,VALID,103.634,VALID,0,VALID,23.7525,VALID,142,VALID,1.50586,
2010-11-05, 01:54:05,VALID,1008.33,VALID,0,VALID,103.642,VALID,0,VALID,23.7543,VALID,132,VALID,0.877734,
2010-11-05, 01:55:05,VALID,1008.33,VALID,0,VALID,103.664,VALID,0,VALID,23.7348,VALID,130,VALID,1.45352,
2010-11-05, 01:56:05,VALID,1008.32,VALID,0,VALID,103.657,VALID,0,VALID,23.7153,VALID,136,VALID,2.00781,
2010-11-05, 01:57:05,VALID,1008.32,VALID,0,VALID,103.642,VALID,0,VALID,23.7153,VALID,145,VALID,1.30391,
2010-11-05, 01:58:05,VALID,1008.34,VALID,0,VALID,103.573,VALID,0,VALID,23.7348,VALID,121,VALID,1.28594,
2010-11-05, 01:59:05,VALID,1008.37,VALID,0,VALID,103.634,VALID,0,VALID,23.7153,VALID,141,VALID,2.22813,
2010-11-05, 02:00:05,VALID,1008.35,VALID,0,VALID,103.642,VALID,0,VALID,23.694,VALID,128,VALID,2.04492,
2010-11-05, 02:01:05,VALID,1008.36,VALID,0.5,VALID,103.634,VALID,0,VALID,23.6763,VALID,134,VALID,1.46602,
2010-11-05, 02:02:05,VALID,1008.36,VALID,0,VALID,103.642,VALID,0,VALID,23.6958,VALID,127,VALID,1.74023,
2010-11-05, 02:03:05,VALID,1008.31,VALID,0,VALID,103.588,VALID,0,VALID,23.6745,VALID,121,VALID,1.23047,
2010-11-05, 02:04:05,VALID,1008.35,VALID,0,VALID,103.565,VALID,0,VALID,23.694,VALID,154,VALID,1.01133,
2010-11-05, 02:05:05,VALID,1008.31,VALID,0,VALID,103.573,VALID,0,VALID,23.694,VALID,163,VALID,0.913281,
2010-11-05, 02:06:05,VALID,1008.32,VALID,0,VALID,103.55,VALID,0,VALID,23.694,VALID,173,VALID,0.858984,
2010-11-05, 02:07:05,VALID,1008.32,VALID,0,VALID,103.573,VALID,0,VALID,23.6958,VALID,158,VALID,1.13945,
2010-11-05, 02:08:05,VALID,1008.33,VALID,0,VALID,103.581,VALID,0,VALID,23.6745,VALID,163,VALID,0.647656,
2010-11-05, 02:09:05,VALID,1008.32,VALID,0,VALID,103.55,VALID,0,VALID,23.694,VALID,141,VALID,0.829297,
2010-11-05, 02:10:05,VALID,1008.31,VALID,0,VALID,103.558,VALID,0,VALID,23.694,VALID,112,VALID,0.608984,
2010-11-05, 02:11:05,VALID,1008.29,VALID,0,VALID,103.535,VALID,0.105969,VALID,23.694,VALID,153,VALID,1.18789,
2010-11-05, 02:12:05,VALID,1008.28,VALID,0,VALID,103.52,VALID,0,VALID,23.6727,VALID,131,VALID,1.30898,
2010-11-05, 02:13:05,VALID,1008.27,VALID,0.5,VALID,103.542,VALID,0,VALID,23.694,VALID,148,VALID,0.564453,
2010-11-05, 02:14:05,VALID,1008.27,VALID,0,VALID,103.497,VALID,0,VALID,23.7135,VALID,132,VALID,1.32734,
2010-11-05, 02:15:05,VALID,1008.27,VALID,0,VALID,103.512,VALID,0,VALID,23.6727,VALID,141,VALID,1.24023,
2010-11-05, 02:16:05,VALID,1008.25,VALID,0,VALID,103.512,VALID,0,VALID,23.7135,VALID,131,VALID,1.02422,
2010-11-05, 02:17:05,VALID,1008.25,VALID,0,VALID,103.481,VALID,0.105969,VALID,23.7117,VALID,146,VALID,0.513672,
2010-11-05, 02:18:05,VALID,1008.25,VALID,0,VALID,103.474,VALID,0.105969,VALID,23.733,VALID,128,VALID,1.5125,
2010-11-05, 02:19:05,VALID,1008.25,VALID,0,VALID,103.512,VALID,0.105969,VALID,23.6922,VALID,124,VALID,1.13945,
2010-11-05, 02:20:05,VALID,1008.2,VALID,0,VALID,103.497,VALID,0.105969,VALID,23.7117,VALID,129,VALID,1.08164,
2010-11-05, 02:21:05,VALID,1008.21,VALID,0,VALID,103.451,VALID,0.105969,VALID,23.7312,VALID,138,VALID,1.39453,
2010-11-05, 02:22:05,VALID,1008.18,VALID,0,VALID,103.489,VALID,0,VALID,23.7135,VALID,118,VALID,1.5832,
2010-11-05, 02:23:05,VALID,1008.18,VALID,0,VALID,103.535,VALID,0.105969,VALID,23.694,VALID,132,VALID,1.05547,
2010-11-05, 02:24:05,VALID,1008.19,VALID,0,VALID,103.527,VALID,0.105969,VALID,23.7135,VALID,144,VALID,1.15586,
2010-11-05, 02:25:05,VALID,1008.18,VALID,0,VALID,103.512,VALID,0,VALID,23.694,VALID,130,VALID,1.69297,
2010-11-05, 02:26:05,VALID,1008.17,VALID,0,VALID,103.52,VALID,0,VALID,23.7135,VALID,138,VALID,0.969922,
2010-11-05, 02:27:05,VALID,1008.16,VALID,0,VALID,103.52,VALID,0,VALID,23.694,VALID,137,VALID,1.51367,
2010-11-05, 02:28:05,VALID,1008.15,VALID,0,VALID,103.504,VALID,0.105969,VALID,23.6922,VALID,131,VALID,1.3668,
2010-11-05, 02:29:05,VALID,1008.14,VALID,0,VALID,103.512,VALID,0.105969,VALID,23.6922,VALID,121,VALID,0.969922,
2010-11-05, 02:30:05,VALID,1008.12,VALID,0.5,VALID,103.55,VALID,0.105969,VALID,23.6727,VALID,110,VALID,0.793359,
2010-11-05, 02:31:05,VALID,1008.13,VALID,0,VALID,103.55,VALID,0.105969,VALID,23.6745,VALID,98,VALID,1.2793,
2010-11-05, 02:32:05,VALID,1008.13,VALID,0,VALID,103.573,VALID,0.105969,VALID,23.6532,VALID,116,VALID,0.863672,
2010-11-05, 02:33:05,VALID,1008.14,VALID,0,VALID,103.558,VALID,0,VALID,23.6727,VALID,122,VALID,0.795703,
2010-11-05, 02:34:05,VALID,1008.09,VALID,0,VALID,103.596,VALID,0.105969,VALID,23.6745,VALID,143,VALID,1.56289,
2010-11-05, 02:35:05,VALID,1008.11,VALID,0,VALID,103.626,VALID,0.105969,VALID,23.6338,VALID,137,VALID,1.61641,
2010-11-05, 02:36:05,VALID,1008.1,VALID,0,VALID,103.642,VALID,0.105969,VALID,23.6338,VALID,138,VALID,1.43086,
2010-11-05, 02:37:05,VALID,1008.1,VALID,0,VALID,103.642,VALID,0.105969,VALID,23.6338,VALID,122,VALID,0.704687,
2010-11-05, 02:38:05,VALID,1008.11,VALID,0,VALID,103.642,VALID,0,VALID,23.6161,VALID,132,VALID,0.935938,
2010-11-05, 02:39:05,VALID,1008.12,VALID,0,VALID,103.657,VALID,0,VALID,23.6161,VALID,129,VALID,1.05039,
2010-11-05, 02:40:05,VALID,1008.09,VALID,0,VALID,103.649,VALID,0,VALID,23.6356,VALID,130,VALID,1.37422,
2010-11-05, 02:41:05,VALID,1008.08,VALID,0,VALID,103.672,VALID,0,VALID,23.6161,VALID,133,VALID,1.21914,
2010-11-05, 02:42:05,VALID,1008.08,VALID,0,VALID,103.649,VALID,0,VALID,23.6161,VALID,139,VALID,1.06953,
2010-11-05, 02:43:05,VALID,1008.07,VALID,0,VALID,103.634,VALID,0,VALID,23.6161,VALID,119,VALID,0.830469,
2010-11-05, 02:44:05,VALID,1008.08,VALID,0,VALID,103.649,VALID,0,VALID,23.6356,VALID,118,VALID,0.725781,
2010-11-05, 02:45:05,VALID,1008.06,VALID,0,VALID,103.649,VALID,0,VALID,23.6356,VALID,130,VALID,0.900391,
2010-11-05, 02:46:05,VALID,1008.07,VALID,0,VALID,103.649,VALID,0,VALID,23.6356,VALID,131,VALID,0.638672,
2010-11-05, 02:47:05,VALID,1008.03,VALID,0,VALID,103.619,VALID,0,VALID,23.655,VALID,131,VALID,0.325391,
2010-11-05, 02:48:05,VALID,1008.03,VALID,0,VALID,103.634,VALID,0,VALID,23.6745,VALID,131,VALID,0.642578,
2010-11-05, 02:49:05,VALID,1008.01,VALID,0,VALID,103.649,VALID,0,VALID,23.655,VALID,85,VALID,0.732422,
2010-11-05, 02:50:05,VALID,1007.99,VALID,0,VALID,103.672,VALID,0,VALID,23.6356,VALID,107,VALID,1.06328,
2010-11-05, 02:51:05,VALID,1008.01,VALID,0,VALID,103.68,VALID,0,VALID,23.5966,VALID,136,VALID,0.841797,
2010-11-05, 02:52:04,VALID,1007.98,VALID,0,VALID,103.695,VALID,0,VALID,23.5771,VALID,126,VALID,1.28086,
2010-11-05, 02:53:04,VALID,1007.99,VALID,0,VALID,103.71,VALID,0,VALID,23.5984,VALID,121,VALID,0.736719,
2010-11-05, 02:54:04,VALID,1007.93,VALID,0,VALID,103.672,VALID,0,VALID,23.6161,VALID,146,VALID,0.332422,
2010-11-05, 02:55:04,VALID,1007.9,VALID,0,VALID,103.733,VALID,0,VALID,23.5771,VALID,115,VALID,1.44023,
2010-11-05, 02:56:04,VALID,1007.86,VALID,0,VALID,103.726,VALID,0,VALID,23.5576,VALID,103,VALID,1.14297,
2010-11-05, 02:57:04,VALID,1007.86,VALID,0,VALID,103.748,VALID,0,VALID,23.5576,VALID,97,VALID,0.657031,
2010-11-05, 02:58:04,VALID,1007.85,VALID,0,VALID,103.756,VALID,0,VALID,23.5381,VALID,147,VALID,1.21133,
2010-11-05, 02:59:04,VALID,1007.83,VALID,0,VALID,103.733,VALID,0,VALID,23.5381,VALID,134,VALID,0.757813,
2010-11-05, 03:00:04,VALID,1007.83,VALID,0,VALID,103.718,VALID,0,VALID,23.5381,VALID,140,VALID,1.23633,
2010-11-05, 03:01:04,VALID,1007.84,VALID,0,VALID,103.733,VALID,0,VALID,23.5399,VALID,130,VALID,0.961328,
2010-11-05, 03:02:04,VALID,1007.82,VALID,0,VALID,103.726,VALID,0,VALID,23.5381,VALID,126,VALID,0.923047,
2010-11-05, 03:03:04,VALID,1007.81,VALID,0,VALID,103.748,VALID,0,VALID,23.5186,VALID,134,VALID,0.942187,
2010-11-05, 03:04:04,VALID,1007.78,VALID,0,VALID,103.748,VALID,0,VALID,23.5186,VALID,145,VALID,0.682422,
2010-11-05, 03:05:04,VALID,1007.77,VALID,0,VALID,103.733,VALID,0,VALID,23.5594,VALID,118,VALID,0.721484,
2010-11-05, 03:06:04,VALID,1007.76,VALID,0,VALID,103.726,VALID,0,VALID,23.5381,VALID,118,VALID,0.633203,
2010-11-05, 03:07:04,VALID,1007.76,VALID,0,VALID,103.741,VALID,0,VALID,23.5381,VALID,119,VALID,1.06602,
2010-11-05, 03:08:04,VALID,1007.76,VALID,0,VALID,103.756,VALID,0,VALID,23.5186,VALID,105,VALID,1.36133,
2010-11-05, 03:09:04,VALID,1007.77,VALID,0,VALID,103.748,VALID,0,VALID,23.4992,VALID,118,VALID,1.10469,
2010-11-05, 03:10:04,VALID,1007.79,VALID,0,VALID,103.718,VALID,0,VALID,23.5399,VALID,98,VALID,0.873828,
2010-11-05, 03:11:04,VALID,1007.81,VALID,0,VALID,103.748,VALID,0,VALID,23.4992,VALID,103,VALID,1.87812,
2010-11-05, 03:12:04,VALID,1007.82,VALID,0,VALID,103.748,VALID,0,VALID,23.5186,VALID,83,VALID,1.31875,
2010-11-05, 03:13:04,VALID,1007.84,VALID,0,VALID,103.779,VALID,0,VALID,23.4797,VALID,83,VALID,1.54766,
2010-11-05, 03:14:04,VALID,1007.85,VALID,0,VALID,103.787,VALID,0,VALID,23.4602,VALID,72,VALID,2.52187,
2010-11-05, 03:15:04,VALID,1007.85,VALID,0,VALID,103.771,VALID,0,VALID,23.4815,VALID,96,VALID,1.44609,
2010-11-05, 03:16:04,VALID,1007.86,VALID,0,VALID,103.764,VALID,0,VALID,23.4407,VALID,67,VALID,0.794531,
2010-11-05, 03:17:04,VALID,1007.84,VALID,0,VALID,103.771,VALID,0,VALID,23.4425,VALID,63,VALID,1.19297,
2010-11-05, 03:18:04,VALID,1007.86,VALID,0,VALID,103.748,VALID,0,VALID,23.423,VALID,85,VALID,1.66211,
2010-11-05, 03:19:04,VALID,1007.88,VALID,0,VALID,103.764,VALID,0,VALID,23.384,VALID,80,VALID,1.47617,
2010-11-05, 03:20:04,VALID,1007.87,VALID,0,VALID,103.741,VALID,0,VALID,23.3628,VALID,97,VALID,1.69922,
2010-11-05, 03:21:04,VALID,1007.86,VALID,0,VALID,103.748,VALID,0,VALID,23.3645,VALID,94,VALID,0.772266,
2010-11-05, 03:22:04,VALID,1007.83,VALID,0,VALID,103.741,VALID,0,VALID,23.3645,VALID,52,VALID,0.717969,
2010-11-05, 03:23:04,VALID,1007.78,VALID,0,VALID,103.726,VALID,0,VALID,23.3628,VALID,95,VALID,1.50586,
2010-11-05, 03:24:04,VALID,1007.78,VALID,0,VALID,103.748,VALID,0.105969,VALID,23.3433,VALID,126,VALID,1.55898,
2010-11-05, 03:25:04,VALID,1007.75,VALID,0.5,VALID,103.733,VALID,0,VALID,23.3238,VALID,119,VALID,1.34258,
2010-11-05, 03:26:04,VALID,1007.77,VALID,0,VALID,103.741,VALID,0,VALID,23.3026,VALID,119,VALID,1.05977,
2010-11-05, 03:27:04,VALID,1007.74,VALID,0,VALID,103.703,VALID,0,VALID,23.3238,VALID,119,VALID,1.11836,
2010-11-05, 03:28:04,VALID,1007.75,VALID,0,VALID,103.718,VALID,0,VALID,23.3238,VALID,102,VALID,1.36172,
2010-11-05, 03:29:04,VALID,1007.71,VALID,0,VALID,103.718,VALID,0.105969,VALID,23.3433,VALID,118,VALID,0.564453,
2010-11-05, 03:30:04,VALID,1007.73,VALID,0,VALID,103.726,VALID,0,VALID,23.3433,VALID,111,VALID,1.27539,
2010-11-05, 03:31:04,VALID,1007.7,VALID,0,VALID,103.726,VALID,0.105969,VALID,23.3026,VALID,106,VALID,1.21836,
2010-11-05, 03:32:04,VALID,1007.67,VALID,0,VALID,103.741,VALID,0,VALID,23.3043,VALID,104,VALID,1.27266,
2010-11-05, 03:33:04,VALID,1007.68,VALID,0,VALID,103.733,VALID,0,VALID,23.3238,VALID,105,VALID,0.711719,
2010-11-05, 03:34:04,VALID,1007.67,VALID,0,VALID,103.733,VALID,0,VALID,23.3238,VALID,107,VALID,1.12148,
2010-11-05, 03:35:04,VALID,1007.65,VALID,0,VALID,103.733,VALID,0.105969,VALID,23.3433,VALID,103,VALID,0.858203,
2010-11-05, 03:36:04,VALID,1007.65,VALID,0,VALID,103.726,VALID,0.105969,VALID,23.3238,VALID,111,VALID,0.767578,
2010-11-05, 03:37:04,VALID,1007.62,VALID,0,VALID,103.741,VALID,0,VALID,23.3433,VALID,122,VALID,0.570703,
2010-11-05, 03:38:04,VALID,1007.62,VALID,0,VALID,103.726,VALID,0,VALID,23.3433,VALID,122,VALID,0.544922,
2010-11-05, 03:39:04,VALID,1007.59,VALID,0,VALID,103.741,VALID,0,VALID,23.3433,VALID,122,VALID,0.0546875,
2010-11-05, 03:40:04,VALID,1007.58,VALID,0,VALID,103.741,VALID,0.105969,VALID,23.3628,VALID,122,VALID,0.449219,
2010-11-05, 03:41:04,VALID,1007.58,VALID,0,VALID,103.771,VALID,0,VALID,23.3433,VALID,122,VALID,0.698828,
2010-11-05, 03:42:04,VALID,1007.59,VALID,0,VALID,103.741,VALID,0,VALID,23.3433,VALID,122,VALID,0.639453,
2010-11-05, 03:43:04,VALID,1007.59,VALID,0,VALID,103.741,VALID,0.105969,VALID,23.322,VALID,134,VALID,0.670703,